カタログに戻る

COSMOS 717

運用中軍事LEO
NORAD 7684·PAYLOAD·🇷🇺 Russia

打ち上げ Feb 28, 1975 から Plesetsk Cosmodrome

Loading…

次のパス (今後24時間)

TLE

最新Source: Space-Track

元期: Sep 14, 2026, 12:48 UTC

1 07684U 75016G   26257.53389162 -.00000020  00000-0 -32833-4 0  9990
2 07684  74.0007 276.8761 0036178 250.7313 183.3960 12.39835738332915

AllMySatでCOSMOS 717をリアルタイム追跡

Download on the App Store